Location: Devore Heights
(34.2372°N, 117.4156°W)
Time: 18:38:02
(UTC+00:00)

Vanguard 1 Rocket - Pass Details

Date: 19 September 2024
Orbit: 650 x 4218 km, 34.3° (Epoch: 04 October)

Event Time Altitude Azimuth Distance (km) Brightness Sun altitude
Rises 17:24:42 0° 288° (WNW) 7,702 11.7 43.7°
Reaches altitude 10° 17:29:59 10° 283° (WNW) 6,990 11.6 44.5°
Maximum altitude 17:52:20 42° 222° (SW) 5,146 11.7 47.9°
Drops below altitude 10° 18:12:40 10° 159° (SSE) 6,319 12.5 50.7°
Sets 18:17:14 0° 152° (SSE) 6,932 12.5 51.2°
